Imperial, NE

3:53 AM MDT on September 25, 2017 (GMT -0600)
Imperial Municipal

Weather History for KIML - October, 2012

Change the Weather History Date:

Thursday, October 18, 2012

  Actual Average Record
Temperature  
Mean Temperature 48 °F 50 °F  
Max Temperature 57 °F 64 °F 90 °F (1927)
Min Temperature 39 °F 36 °F 15 °F (1917)
Degree Days  
Heating Degree Days 17 15  
Month to date heating degree days 270 211  
Cooling Degree Days 0 0  
Month to date cooling degree days 4 3  
Year to date cooling degree days 1382 960  
Moisture  
Dew Point 12 °F    
Average Humidity 30    
Maximum Humidity 45    
Minimum Humidity 14    
Precipitation  
Precipitation 0.00 in 0.05 in 2.30 in (1985)
Sea Level Pressure  
Sea Level Pressure 29.96 in    
Wind  
Wind Speed 27 mph (NW)    
Max Wind Speed 48 mph    
Max Gust Speed 62 mph    
Visibility 6 miles    
Events      
T = Trace of Precipitation, MM = Missing Value Source: NWS Daily Summary

Daily Weather History Graph

Daily Weather History Graph

Search for Another Location

Airport or City:

Trip Planner

Search our weather history database for the weather conditions in past years. The results will help you decide how hot, cold, wet, or windy it might be!

Date:

Astronomy

Oct. 18, 2012 Rise Set
Actual Time 7:01 AM MDT 6:01 PM MDT
Civil Twilight 6:33 AM MDT 6:28 PM MDT
Nautical Twilight 6:01 AM MDT 7:00 PM MDT
Astronomical Twilight 5:30 AM MDT 7:31 PM MDT
Moon 10:46 AM MDT (10/18) 8:36 PM MDT (10/18)
Length of Visible Light 11h 55m
Length of Day
10h 59m
Waxing Crescent, 15% of the Moon is Illuminated
Oct 18
Waxing Crescent
Oct 21
First Quarter
Oct 29
Full
Nov 6
Last Quarter
Nov 13
New

Hourly Weather History & Observations

Time (MDT) Temp. Windchill Dew Point Humidity Pressure Visibility Wind Dir Wind Speed Gust Speed Precip Events Conditions
12:53 AM 42.1 °F 34.9 °F 19.9 °F 41% 29.94 in 10.0 mi WNW 13.8 mph 20.7 mph N/A   Partly Cloudy
1:53 AM 41.0 °F 32.5 °F 21.0 °F 45% 29.95 in 10.0 mi WNW 17.3 mph 23.0 mph N/A   Clear
2:53 AM 43.0 °F 33.5 °F 19.0 °F 38% 29.94 in 10.0 mi NW 24.2 mph 33.4 mph N/A   Clear
3:53 AM 43.0 °F 32.9 °F 17.1 °F 35% 29.94 in 10.0 mi NW 27.6 mph 39.1 mph N/A   Clear
4:53 AM 42.1 °F 33.1 °F 16.0 °F 35% 29.95 in 10.0 mi WNW 20.7 mph 34.5 mph N/A   Clear
5:53 AM 41.0 °F 32.2 °F 17.1 °F 38% 29.96 in 10.0 mi WNW 18.4 mph 27.6 mph N/A   Clear
6:53 AM 42.1 °F 32.6 °F 16.0 °F 35% 29.96 in 10.0 mi WNW 23.0 mph 35.7 mph N/A   Clear
7:53 AM 44.1 °F 34.2 °F 17.1 °F 34% 29.96 in 8.0 mi NW 28.8 mph 42.6 mph N/A   Clear
8:18 AM 44.6 °F 34.2 °F 15.8 °F 31% 29.94 in 4.0 mi NW 33.4 mph 49.5 mph N/A   Haze
8:39 AM 46.4 °F 35.8 °F 15.8 °F 29% 29.95 in 2.5 mi NW 40.3 mph 55.2 mph N/A   Haze
8:53 AM 46.9 °F - 15.1 °F 28% 29.96 in 2.5 mi NW 38.0 mph 57.5 mph N/A   Haze
8:58 AM 46.4 °F 36.7 °F 15.8 °F 29% 29.95 in 3.0 mi NW 33.4 mph 52.9 mph N/A   Haze
9:13 AM 46.4 °F 36.3 °F 14.0 °F 27% 29.95 in 2.0 mi NW 36.8 mph 50.6 mph N/A   Haze
9:53 AM 48.9 °F - 14.0 °F 25% 29.96 in 2.5 mi NW 34.5 mph 59.8 mph N/A   Haze
10:06 AM 48.2 °F - 12.2 °F 24% 29.95 in 1.5 mi NW 40.3 mph 58.7 mph N/A   Haze
10:53 AM 51.1 °F - 12.9 °F 22% 29.94 in 1.2 mi NW 41.4 mph 55.2 mph N/A   Haze
11:53 AM 53.1 °F - 10.9 °F 19% 29.95 in 1.2 mi NW 42.6 mph 61.0 mph N/A   Haze
1:29 PM 55.4 °F - 10.4 °F 17% 29.92 in 2.0 mi NW 39.1 mph 57.5 mph N/A   Haze
1:53 PM 55.9 °F - 9.0 °F 15% 29.93 in 1.8 mi NW 39.1 mph 55.2 mph N/A   Haze
2:02 PM 55.4 °F - 8.6 °F 15% 29.92 in 2.5 mi NW 34.5 mph 55.2 mph N/A   Haze
2:53 PM 57.0 °F - 8.1 °F 14% 29.93 in 2.5 mi NW 36.8 mph 52.9 mph N/A   Haze
3:02 PM 57.2 °F - 8.6 °F 14% 29.93 in 3.0 mi NW 32.2 mph 49.5 mph N/A   Haze
3:46 PM 57.2 °F - 8.6 °F 14% 29.94 in 4.0 mi NW 34.5 mph 51.8 mph N/A   Haze
3:53 PM 57.0 °F - 8.1 °F 14% 29.94 in 4.0 mi NNW 36.8 mph 50.6 mph N/A   Haze
4:53 PM 55.9 °F - 7.0 °F 14% 29.95 in 8.0 mi NNW 31.1 mph 44.9 mph N/A   Overcast
5:53 PM 54.0 °F - 7.0 °F 15% 29.98 in 10.0 mi NW 28.8 mph 36.8 mph N/A   Overcast
6:18 PM 51.8 °F - 6.8 °F 16% 29.97 in 10.0 mi NW 21.9 mph 29.9 mph N/A   Scattered Clouds
6:53 PM 50.0 °F - 7.0 °F 18% 30.00 in 10.0 mi NW 12.7 mph 21.9 mph N/A   Clear
7:53 PM 48.9 °F - 6.1 °F 18% 30.01 in 10.0 mi NNW 16.1 mph 24.2 mph N/A   Clear
8:53 PM 46.9 °F - 5.0 °F 18% 30.01 in 10.0 mi NW 15.0 mph 23.0 mph N/A   Clear
9:53 PM 44.1 °F 38.6 °F 7.0 °F 22% 30.01 in 10.0 mi NW 10.4 mph - N/A   Clear
10:53 PM 43.0 °F 37.7 °F 7.0 °F 23% 30.02 in 10.0 mi NW 9.2 mph - N/A   Clear
11:53 PM 42.1 °F 35.2 °F 6.1 °F 23% 30.01 in 10.0 mi NW 12.7 mph - N/A   Clear